Flag for Poland Weather past 2 weeks in Gdańsk, Poland

Now
52 °F

Light rain. Partly sunny.


Feels Like: 49 °F
Forecast: 38 / 43 °F
Wind: 9 mph from West

Location: Gdansk-Rebiechowo

Current Time: Dec 19, 2014 at 11:55:21 AM

Latest Report: Dec 19, 2014 at 11:30 AM


Visibility: 4 mi

Pressure: 29.47 "Hg

Humidity: 94%

Dew point: 50 °F

Location of GdańskLocation

Historic Weather in Gdańsk — Graph

°F

Gdańsk temperature yesterday

Maximum temperature yesterday: 48 °F (at 11:30 PM)
Minimum temperature yesterday: 34 °F (at 12:00 AM)
Average temperature yesterday: 40 °F

Past Weeks' High & Low Weather Summary

 TemperatureHumidityPressure
High52 °F (Dec 19, 9:30 AM)100% (Dec 4, 11:00 AM)30.30 "Hg (Dec 4, 11:00 AM)
Low27 °F (Dec 4, 11:00 AM)61% (Dec 17, 1:30 PM)29.24 "Hg (Dec 12, 10:30 PM)
Average36 °F91%29.85 "Hg
* Reported Dec 4 11:00 AM — Dec 19 11:00 AM, Gdańsk, Weather by CustomWeather, © 2014

Note: Actual official high and low records may vary slightly from our data, if they occured in-between our weather recording intervals... More about our weather records

Advertising

Gdańsk weather history for previous 24 hours

 ConditionsComfort  
Time TempWeatherWind HumidityBarometerVisibility
11:00 AM
Dec 19
50 °FBroken clouds.8 mph100%29.50 "Hg4 mi
10:30 AM50 °FLight rain. Broken clouds.9 mph100%29.50 "Hg4 mi
10:00 AM52 °FLight rain. Fog.12 mph94%29.50 "Hg2 mi
9:30 AM52 °FPartly sunny.14 mph88%29.50 "HgN/A
9:00 AM50 °FPartly sunny.14 mph100%29.50 "HgN/A
8:30 AM50 °FLight rain. Partly sunny.13 mph100%29.50 "Hg4 mi
8:00 AM50 °FLight rain. Fog.12 mph100%29.50 "Hg3 mi
7:30 AM50 °FPassing clouds.14 mph100%29.47 "HgN/A
7:00 AM50 °FLight rain. Passing clouds.15 mph100%29.47 "Hg4 mi
6:30 AM50 °FLight rain. Partly cloudy.14 mph100%29.47 "Hg5 mi
6:00 AM50 °FLight rain. Partly cloudy.15 mph100%29.47 "Hg4 mi
5:30 AM50 °FLight rain. Passing clouds.15 mph100%29.47 "Hg5 mi
5:00 AM50 °FLight rain. Passing clouds.15 mph100%29.47 "HgN/A
4:30 AM50 °FLight rain. Passing clouds.14 mph100%29.45 "HgN/A
4:00 AM50 °FLight rain. Passing clouds.14 mph100%29.45 "Hg5 mi
3:30 AM50 °FLight rain. Passing clouds.15 mph100%29.45 "Hg5 mi
3:00 AM50 °FLight rain. Passing clouds.15 mph100%29.45 "Hg5 mi
2:30 AM50 °FLight rain. Passing clouds.17 mph94%29.45 "Hg5 mi
2:00 AM50 °FLight rain. Passing clouds.15 mph94%29.45 "Hg5 mi
1:30 AM48 °FLight rain. Passing clouds.13 mph100%29.45 "Hg5 mi
1:00 AM48 °FLight rain. Passing clouds.14 mph100%29.45 "Hg4 mi
12:30 AM48 °FLight rain. Passing clouds.13 mph94%29.47 "Hg4 mi
12:00 AM48 °FLight rain. Passing clouds.12 mph94%29.47 "Hg5 mi
11:30 PM
Dec 18
48 °FLight rain. Passing clouds.12 mph94%29.47 "Hg5 mi
11:00 PM46 °FLight rain. Passing clouds.12 mph100%29.50 "Hg5 mi
10:30 PM46 °FLight rain. Passing clouds.13 mph100%29.50 "Hg5 mi
10:00 PM46 °FLight rain. Passing clouds.12 mph100%29.50 "Hg5 mi
9:30 PM46 °FLight rain. Passing clouds.13 mph93%29.53 "Hg5 mi
9:00 PM46 °FLight rain. Passing clouds.10 mph93%29.53 "Hg5 mi
8:30 PM46 °FLight rain. Passing clouds.10 mph93%29.56 "Hg4 mi
8:00 PM45 °FLight rain. Fog.10 mph100%29.56 "Hg2 mi
7:30 PM45 °FLight rain. Fog.12 mph93%29.56 "Hg3 mi
7:00 PM45 °FLight rain. Passing clouds.10 mph93%29.59 "Hg4 mi
6:30 PM45 °FLight rain. Passing clouds.12 mph93%29.59 "HgN/A
6:00 PM43 °FPartly cloudy.10 mph93%29.62 "HgN/A
5:30 PM45 °FPassing clouds.13 mph87%29.62 "HgN/A
5:00 PM45 °FPassing clouds.10 mph87%29.62 "HgN/A
4:30 PM43 °FPassing clouds.10 mph93%29.65 "HgN/A
4:00 PM43 °FPassing clouds.8 mph93%29.65 "HgN/A
3:30 PM43 °FPassing clouds.8 mph87%29.65 "HgN/A
3:00 PM43 °FScattered clouds.6 mph93%29.65 "HgN/A
2:30 PM43 °FPartly sunny.9 mph93%29.65 "HgN/A
2:00 PM41 °FPartly sunny.6 mph93%29.68 "HgN/A
1:30 PM41 °FPartly sunny.7 mph93%29.68 "HgN/A
1:00 PM41 °FPartly sunny.7 mph93%29.65 "HgN/A
12:30 PM39 °FPartly sunny.7 mph100%29.68 "Hg5 mi
12:00 PM39 °FPartly sunny.7 mph93%29.68 "Hg4 mi
11:30 AM37 °FFog.7 mph100%29.68 "Hg3 mi
11:00 AM37 °FFog.5 mph100%29.68 "Hg2 mi
Weather by CustomWeather, © 2014

See weather overviewHow to use our weather pages